Wind_Speed
2 2 2 1 1 2 2 2 2 3 3 2 2 2 2 2 2 3 3 4 5 5 6 6 7 7 8 9 9 9 8 9 9 10 10 11 12 12 13 14 14 14 15
4 4 3 3 3 3 3 3 3 3 3 3 3 2 3 3 4 4 4 5 6 6 7 8 8 8 8 9 9 9 9 10 10 11 11 12 12 12 13 13 14 14 15
7 6 5 5 5 4 4 4 3 4 5 4 4 4 4 4 5 6 6 7 7 7 8 8 9 9 10 10 10 9 10 10 10 10 11 12 13 13 13 14 14 15 15
9 8 8 7 6 6 5 5 5 5 6 6 6 5 5 6 6 7 8 8 8 8 8 9 10 10 10 10 11 10 11 11 11 12 12 13 13 14 15 15 16 16 17
10 10 9 9 8 8 7 7 7 6 7 7 7 7 7 7 8 9 9 10 10 10 10 11 11 11 11 11 11 11 11 12 12 13 13 14 15 15 16 17 17 18 18
10 10 10 10 9 9 9 9 9 8 8 9 8 9 9 9 10 11 11 11 11 12 12 12 13 12 12 12 12 12 12 13 13 14 15 16 17 17 17 18 18 19 19
11 10 10 10 11 11 11 11 12 11 11 11 11 11 11 11 12 12 12 12 13 13 13 14 14 15 15 15 15 14 14 14 15 16 16 17 17 18 18 19 19 19 20
11 11 12 12 13 13 13 13 13 13 13 13 12 13 13 13 14 14 14 15 15 15 15 15 16 16 16 17 17 16 16 17 17 18 18 18 18 19 19 19 20 20 20
12 12 13 13 14 14 14 14 15 15 15 14 14 14 15 15 15 16 16 17 17 17 17 18 17 17 18 18 19 18 18 19 20 20 20 20 20 20 20 20 20 20 20
14 14 14 15 15 15 16 16 16 17 17 16 16 16 16 16 17 17 18 19 19 18 19 19 19 19 20 20 20 20 20 21 21 20 20 21 21 21 21 20 20 20 20
15 15 15 15 16 17 18 18 19 19 19 19 19 19 19 19 18 19 20 21 21 21 20 20 21 21 21 21 22 22 22 22 22 21 21 21 21 21 21 21 21 21 21
17 16 16 16 18 18 19 20 21 21 21 21 20 21 21 21 20 21 21 21 21 22 22 22 22 22 21 22 23 23 22 23 23 22 22 22 22 21 21 20 21 22 21
18 18 18 19 20 21 21 21 22 22 22 22 22 22 22 23 23 22 21 21 22 22 22 22 22 22 22 22 22 22 22 22 23 22 22 22 22 22 21 21 22 22 21
20 20 21 22 23 23 23 23 24 24 24 24 24 23 24 25 25 24 23 23 23 23 24 24 24 23 24 23 23 23 23 23 23 23 22 22 22 22 22 22 22 22 22
22 23 23 24 25 25 25 25 25 26 25 24 25 24 25 25 25 25 25 25 25 25 25 25 25 24 25 24 25 25 25 25 24 24 23 23 22 23 23 22 22 22 22
24 25 25 25 26 26 26 26 26 26 26 26 26 26 26 26 27 27 27 27 26 26 26 26 26 26 25 25 25 25 25 25 24 24 24 24 23 23 23 22 22 22 21
25 26 26 27 27 27 26 26 27 27 27 28 27 27 27 28 28 29 29 28 28 28 27 27 27 26 25 26 25 25 25 24 24 24 24 24 24 24 23 23 23 22 22
26 26 26 26 26 27 28 29 28 28 28 28 28 28 28 29 29 29 29 30 29 28 28 27 26 26 26 26 26 25 25 25 25 25 25 25 25 25 25 25 24 24 23
27 27 27 27 28 28 28 29 29 29 29 30 30 30 30 30 30 30 30 30 30 28 28 28 27 27 27 27 27 27 27 27 27 27 27 27 27 27 26 26 25 24 24
27 27 28 29 29 29 29 28 29 30 30 30 30 30 31 31 31 31 31 31 30 30 29 28 29 29 29 29 29 30 30 30 29 29 28 28 28 28 27 27 27 26 26
28 28 28 29 28 28 28 29 30 31 32 32 32 32 32 31 31 31 31 31 31 31 31 31 31 31 31 31 31 31 31 31 30 30 29 28 28 28 28 28 27 27 27
28 28 28 28 28 28 29 29 30 31 32 32 33 32 32 32 32 31 31 32 32 32 32 32 33 33 33 32 32 32 32 31 31 31 30 29 29 29 29 28 28 28 28
29 29 29 29 29 29 30 30 30 31 31 33 33 34 34 34 34 34 34 34 34 33 33 33 34 34 34 33 33 32 32 32 32 32 31 31 30 29 29 29 29 29 29
29 30 29 29 29 30 30 31 31 31 31 33 34 35 35 36 35 35 35 35 35 34 35 35 34 34 35 34 33 33 34 33 32 31 31 30 29 29 29 30 30 29 29
31 31 32 31 31 31 32 32 32 32 32 33 34 34 34 35 35 36 36 35 35 35 34 35 35 35 35 33 33 32 32 31 30 30 30 30 30 30 30 29 29 29 29
31 31 32 32 33 33 32 32 32 32 33 33 34 34 34 34 34 35 35 34 34 34 34 33 33 33 33 32 30 30 30 30 31 30 30 30 30 30 30 30 30 30 30
Wind_Direction
286 291 306 315 316 332 340 350 357 0 357 360 5 3 354 351 353 353 349 346 342 341 338 327 320 320 318 318 312 303 295 294 291 291 288 284 283 281 279 280 280 279 275
269 269 269 291 297 298 310 314 319 331 340 340 338 333 330 330 327 327 328 328 328 331 336 331 322 320 317 313 310 302 299 298 297 295 290 287 285 285 283 282 281 280 278
267 269 270 276 284 285 286 286 292 300 309 316 314 312 315 317 314 312 314 317 321 325 326 325 325 322 323 320 315 308 304 299 295 293 291 290 289 288 287 285 283 281 280
264 267 270 271 273 281 277 276 284 291 298 300 300 299 303 303 303 302 304 306 312 317 319 321 322 319 318 318 317 307 304 302 298 296 292 291 290 291 291 288 285 282 279
261 263 265 269 270 276 281 280 283 288 292 295 294 294 295 297 295 294 295 298 305 310 312 313 317 316 312 312 314 309 300 299 298 297 294 292 290 289 289 289 287 285 283
266 266 264 265 267 272 281 286 288 287 288 291 291 293 292 297 300 299 297 297 299 303 307 309 308 308 307 306 307 308 306 301 299 296 293 292 291 290 289 289 288 286 285
265 265 264 263 263 266 273 278 284 285 287 288 288 289 293 296 298 299 298 296 297 299 301 301 299 300 305 305 302 301 301 303 302 301 297 296 293 290 289 287 287 286 285
266 265 267 268 266 268 270 274 277 280 285 287 286 287 289 292 294 297 299 296 297 298 298 298 298 299 302 305 305 297 298 300 300 300 297 295 293 291 289 287 286 286 285
270 269 269 269 268 270 273 274 274 277 282 284 284 285 287 290 293 295 298 298 296 295 296 297 297 296 299 300 302 301 297 299 298 297 295 293 292 291 289 287 285 285 284
270 269 271 268 267 270 272 275 277 277 280 281 283 286 288 290 292 292 293 295 295 293 293 294 295 295 296 296 296 296 298 297 296 295 293 293 292 291 289 286 285 284 282
270 271 271 271 271 274 273 273 276 276 278 278 281 284 286 287 290 291 294 292 290 290 288 290 293 293 293 293 292 293 294 297 297 297 294 293 293 292 290 287 285 283 280
266 266 268 269 271 273 275 273 274 274 275 274 277 281 284 286 288 290 293 294 293 293 290 289 292 293 293 293 292 292 293 294 295 298 297 294 293 291 290 289 286 283 282
266 265 267 268 271 273 275 274 274 274 274 273 274 277 280 283 285 288 293 294 294 294 293 292 290 292 293 293 293 292 293 294 294 295 296 295 292 291 290 291 288 286 284
266 269 270 269 271 273 274 275 275 275 276 275 274 275 279 282 284 286 289 291 292 293 292 290 291 290 291 291 293 293 293 293 292 293 295 295 293 291 289 290 289 286 283
265 268 270 271 273 273 273 276 275 276 277 277 278 277 280 281 283 286 287 288 289 291 292 291 292 291 289 290 291 291 291 292 292 292 293 292 292 291 289 289 287 286 284
266 267 270 272 273 273 273 275 276 277 279 280 281 280 281 281 283 284 285 286 288 291 292 292 294 293 290 290 290 290 290 291 292 292 290 290 290 290 289 287 286 286 285
267 269 271 272 272 272 273 275 276 276 278 281 283 284 285 284 284 285 284 284 287 289 291 291 291 292 292 292 291 289 290 291 291 291 290 289 288 289 287 286 286 286 286
265 267 270 271 272 273 274 275 274 276 278 280 282 285 287 286 285 285 286 285 286 286 288 289 289 289 291 291 290 290 289 289 289 289 290 289 287 287 286 285 285 284 284
266 267 269 271 272 273 274 274 275 275 277 279 282 284 286 287 287 286 286 287 286 286 286 287 287 290 290 289 288 288 289 288 287 286 287 289 286 286 285 284 284 284 282
267 267 269 271 271 273 274 275 276 276 277 279 281 283 285 286 286 285 284 284 284 283 283 285 287 288 289 287 286 287 288 287 286 286 286 286 285 285 284 284 284 284 282
268 267 269 271 270 271 273 275 275 276 276 278 279 281 284 284 285 284 282 283 284 283 282 283 284 285 286 286 287 289 290 288 286 286 284 283 284 283 283 283 284 284 284
269 269 270 270 270 272 274 275 276 277 277 277 278 280 281 282 283 282 282 282 282 282 282 282 282 284 285 285 286 287 288 287 285 285 283 282 282 281 281 283 283 285 285
269 270 270 271 273 275 277 277 278 279 280 279 279 280 279 280 281 282 282 281 281 281 281 282 283 284 284 285 285 286 286 286 284 283 282 281 280 281 282 283 283 284 284
268 270 270 272 274 276 278 279 280 281 282 281 280 280 280 280 280 281 281 280 280 280 282 284 285 286 284 284 285 285 284 284 285 283 281 280 280 281 282 283 283 282 282
267 270 271 272 274 276 278 280 282 283 284 282 280 280 281 281 281 280 280 280 280 280 281 282 283 284 285 285 286 286 285 286 285 284 283 282 282 281 282 282 282 282 282
268 270 271 274 275 278 278 278 280 283 283 284 283 280 280 281 281 280 281 281 282 281 281 281 282 283 284 283 284 285 283 283 283 283 282 281 281 281 281 280 280 281 282
Height
5922 5922 5921 5920 5920 5919 5918 5917 5916 5915 5914 5914 5912 5912 5911 5910 5908 5907 5906 5905 5904 5903 5902 5900 5899 5898 5896 5895 5893 5892 5891 5890 5890 5889 5888 5887 5887 5886 5886 5885 5884 5884 5883
5922 5921 5921 5920 5920 5919 5918 5917 5916 5915 5914 5913 5912 5911 5910 5909 5908 5907 5906 5905 5903 5902 5901 5899 5898 5896 5895 5893 5891 5890 5889 5888 5887 5887 5886 5885 5885 5883 5882 5882 5881 5880 5880
5921 5920 5920 5919 5919 5918 5917 5916 5916 5915 5914 5913 5912 5911 5910 5909 5908 5907 5905 5904 5903 5901 5900 5898 5897 5895 5894 5892 5890 5888 5887 5886 5885 5884 5883 5882 5881 5880 5879 5878 5878 5877 5876
5920 5919 5919 5918 5918 5917 5916 5915 5914 5914 5913 5912 5911 5910 5909 5908 5907 5906 5904 5903 5902 5900 5898 5897 5895 5894 5892 5890 5888 5886 5885 5884 5883 5882 5880 5880 5878 5877 5876 5875 5874 5873 5873
5918 5918 5917 5917 5916 5916 5915 5914 5913 5912 5911 5910 5909 5909 5908 5907 5905 5904 5903 5901 5900 5898 5897 5895 5893 5892 5890 5888 5886 5884 5883 5882 5880 5879 5878 5876 5875 5874 5873 5871 5871 5870 5868
5916 5915 5915 5915 5914 5914 5913 5913 5912 5911 5910 5909 5908 5907 5906 5905 5903 5902 5901 5899 5898 5896 5895 5893 5891 5889 5887 5885 5884 5882 5880 5879 5878 5876 5874 5873 5871 5870 5869 5867 5866 5865 5864
5913 5913 5913 5912 5912 5911 5911 5911 5910 5909 5908 5907 5906 5905 5904 5902 5901 5900 5898 5897 5895 5894 5892 5890 5888 5886 5884 5882 5881 5879 5878 5876 5874 5872 5871 5869 5867 5866 5864 5863 5861 5860 5859
5910 5910 5910 5910 5909 5909 5908 5908 5907 5906 5905 5904 5903 5902 5901 5900 5899 5897 5896 5894 5892 5891 5889 5887 5885 5883 5881 5879 5877 5875 5874 5872 5870 5868 5866 5864 5863 5861 5860 5858 5857 5856 5854
5907 5907 5907 5906 5906 5906 5905 5905 5904 5903 5902 5901 5900 5899 5898 5897 5896 5894 5893 5891 5889 5887 5885 5883 5881 5879 5877 5876 5873 5871 5869 5868 5865 5864 5862 5860 5858 5857 5855 5853 5852 5851 5849
5904 5904 5903 5903 5903 5902 5901 5901 5900 5899 5898 5898 5897 5896 5895 5893 5892 5890 5889 5887 5885 5883 5881 5879 5877 5875 5873 5871 5869 5867 5865 5863 5861 5859 5857 5855 5853 5852 5850 5848 5847 5845 5844
5900 5900 5899 5899 5898 5898 5897 5897 5896 5895 5894 5893 5892 5892 5890 5889 5888 5886 5884 5882 5880 5878 5876 5874 5872 5870 5868 5866 5864 5862 5860 5858 5856 5854 5852 5849 5847 5846 5844 5842 5841 5840 5838
5896 5895 5895 5895 5894 5893 5893 5892 5891 5890 5889 5888 5888 5887 5886 5884 5883 5881 5879 5877 5874 5872 5870 5868 5867 5864 5862 5861 5859 5857 5855 5853 5851 5849 5846 5844 5842 5840 5838 5836 5835 5834 5833
5891 5891 5890 5890 5889 5889 5888 5887 5886 5885 5884 5883 5882 5881 5880 5879 5877 5876 5874 5872 5869 5867 5865 5862 5861 5859 5857 5855 5853 5851 5849 5847 5845 5843 5841 5838 5836 5834 5832 5831 5829 5828 5827
5886 5886 5885 5885 5884 5883 5882 5881 5881 5880 5878 5877 5876 5875 5874 5873 5872 5870 5868 5866 5864 5862 5859 5857 5855 5852 5850 5848 5846 5845 5843 5841 5840 5837 5835 5833 5830 5828 5826 5825 5823 5822 5821
5880 5880 5879 5878 5878 5877 5876 5875 5874 5873 5872 5871 5870 5869 5868 5866 5865 5863 5862 5860 5858 5856 5853 5851 5848 5846 5844 5842 5841 5839 5837 5835 5833 5831 5829 5827 5825 5823 5821 5819 5817 5816 5815
5873 5873 5873 5872 5871 5870 5869 5868 5867 5866 5865 5865 5864 5862 5861 5860 5858 5857 5855 5853 5851 5849 5847 5845 5842 5840 5838 5836 5834 5833 5831 5829 5827 5825 5823 5821 5819 5817 5815 5813 5811 5810 5809
5866 5866 5866 5865 5864 5863 5862 5861 5860 5859 5859 5858 5857 5855 5854 5852 5851 5849 5848 5846 5844 5842 5839 5837 5835 5833 5831 5829 5827 5825 5824 5822 5820 5818 5816 5814 5812 5810 5808 5807 5805 5804 5802
5858 5858 5858 5857 5856 5855 5854 5853 5853 5852 5851 5850 5849 5848 5846 5845 5843 5841 5840 5838 5836 5834 5832 5830 5828 5826 5824 5822 5820 5818 5816 5814 5813 5811 5809 5807 5805 5803 5802 5800 5799 5797 5796
5850 5850 5850 5849 5848 5847 5846 5845 5844 5844 5843 5842 5841 5840 5839 5837 5835 5833 5832 5830 5828 5826 5824 5822 5820 5818 5817 5815 5813 5811 5808 5806 5804 5803 5801 5799 5798 5796 5794 5793 5792 5790 5789
5842 5842 5842 5841 5840 5839 5838 5837 5836 5835 5835 5834 5833 5832 5830 5828 5827 5825 5823 5821 5819 5818 5816 5815 5813 5810 5808 5807 5804 5802 5800 5798 5796 5795 5793 5791 5790 5788 5786 5785 5784 5783 5781
5834 5834 5833 5833 5832 5831 5830 5828 5828 5827 5826 5825 5824 5823 5821 5819 5818 5815 5814 5812 5811 5809 5807 5806 5804 5802 5799 5798 5796 5793 5791 5790 5788 5786 5784 5783 5782 5780 5778 5777 5776 5774 5773
5826 5826 5825 5824 5823 5822 5821 5820 5819 5818 5817 5816 5815 5813 5812 5810 5808 5806 5805 5803 5802 5800 5798 5797 5795 5792 5790 5788 5786 5784 5782 5780 5779 5777 5776 5775 5773 5772 5770 5769 5768 5766 5765
5818 5818 5817 5816 5815 5814 5813 5812 5810 5809 5808 5807 5805 5804 5802 5801 5799 5797 5795 5794 5792 5791 5789 5787 5785 5783 5780 5778 5777 5775 5773 5771 5769 5767 5766 5765 5764 5763 5762 5760 5759 5757 5756
5809 5809 5808 5807 5806 5805 5804 5802 5801 5799 5798 5797 5795 5794 5793 5791 5789 5788 5786 5784 5782 5781 5779 5778 5776 5773 5771 5769 5767 5765 5764 5762 5760 5758 5756 5755 5754 5753 5752 5751 5750 5749 5748
5801 5800 5799 5798 5797 5796 5795 5793 5791 5790 5789 5787 5786 5784 5782 5780 5779 5777 5776 5774 5773 5771 5769 5768 5765 5763 5762 5760 5758 5756 5754 5752 5751 5749 5747 5746 5745 5744 5743 5742 5741 5740 5739
5791 5791 5790 5789 5788 5787 5785 5784 5782 5781 5779 5777 5775 5774 5772 5770 5769 5767 5765 5763 5762 5761 5759 5757 5756 5754 5752 5750 5748 5747 5745 5743 5741 5740 5739 5737 5736 5735 5734 5733 5732 5731 5729